Time,TemperatureF,DewpointF,PressureIn,WindDirection,WindDirectionDegrees,WindSpeedMPH,WindSpeedGustMPH,Humidity,HourlyPrecipIn,Conditions,Clouds,dailyrainin,SolarRadiationWatts/m^2,SoftwareType,DateUTC
2013-02-01 00:01:00,41.2,35.8,28.64,NNE,15,5.8,5.8,81,0.00,CLR,FEW,0.00,0.0,WeatherDisplay:10.37,2013-01-31 23:01:00,
2013-02-01 00:06:00,41.0,35.9,28.64,North,350,8.1,8.1,82,0.00,RA,FEW,0.00,0.0,WeatherDisplay:10.37,2013-01-31 23:06:00,
2013-02-01 00:11:00,41.0,35.6,28.64,NW,305,3.5,3.8,81,0.00,CLR,FEW,0.00,0.0,WeatherDisplay:10.37,2013-01-31 23:11:00,
2013-02-01 00:16:00,41.2,35.5,28.64,North,355,6.9,7.1,80,0.00,CLR,FEW,0.00,0.0,WeatherDisplay:10.37,2013-01-31 23:16:00,
2013-02-01 00:21:00,41.0,35.0,28.64,NNE,25,2.3,2.6,79,0.00,CLR,FEW,0.00,0.0,WeatherDisplay:10.37,2013-01-31 23:21:00,
2013-02-01 00:26:00,41.0,35.0,28.64,NNE,25,2.3,2.6,79,0.00,CLR,FEW,0.00,0.0,WeatherDisplay:10.37,2013-01-31 23:26:00,
2013-02-01 00:31:00,40.8,34.8,28.64,West,275,4.6,4.9,79,0.00,CLR,FEW,0.00,0.0,WeatherDisplay:10.37,2013-01-31 23:31:00,
2013-02-01 00:36:00,41.0,34.7,28.67,NNE,15,5.8,6.0,78,0.00,CLR,FEW,0.00,0.0,WeatherDisplay:10.37,2013-01-31 23:36:00,
2013-02-01 00:41:00,41.0,34.7,28.67,West,265,4.6,4.6,78,0.00,CLR,FEW,0.00,0.0,WeatherDisplay:10.37,2013-01-31 23:41:00,
2013-02-01 00:46:00,41.0,34.3,28.67,NNE,25,6.9,6.9,77,0.00,CLR,FEW,0.00,0.0,WeatherDisplay:10.37,2013-01-31 23:46:00,
2013-02-01 00:51:00,41.0,34.3,28.64,NNW,340,5.8,5.8,77,0.00,CLR,FEW,0.00,0.0,WeatherDisplay:10.37,2013-01-31 23:51:00,
2013-02-01 00:56:00,41.0,34.3,28.64,NNW,340,5.8,5.8,77,0.00,CLR,FEW,0.00,0.0,WeatherDisplay:10.37,2013-01-31 23:56:00,
2013-02-01 01:01:00,41.4,34.4,28.64,North,355,5.8,5.8,76,0.00,CLR,FEW,0.00,0.0,WeatherDisplay:10.37,2013-02-01 00:01:00,
2013-02-01 01:06:00,41.7,34.4,28.64,North,5,9.2,9.2,75,0.00,CLR,FEW,0.00,0.0,WeatherDisplay:10.37,2013-02-01 00:06:00,
2013-02-01 01:11:00,41.7,34.4,28.64,North,5,9.2,9.2,75,0.00,CLR,FEW,0.00,0.0,WeatherDisplay:10.37,2013-02-01 00:11:00,
2013-02-01 01:16:00,41.7,34.4,28.64,North,10,8.1,8.3,75,0.00,CLR,FEW,0.00,0.0,WeatherDisplay:10.37,2013-02-01 00:16:00,
2013-02-01 01:21:00,41.9,34.6,28.64,NNE,30,9.2,9.2,75,0.00,CLR,FEW,0.00,0.0,WeatherDisplay:10.37,2013-02-01 00:21:00,
2013-02-01 01:26:00,41.9,34.6,28.64,NNE,30,9.2,9.2,75,0.00,CLR,FEW,0.00,0.0,WeatherDisplay:10.37,2013-02-01 00:26:00,
2013-02-01 01:31:00,41.7,34.4,28.64,WNW,285,4.6,4.9,75,0.00,CLR,FEW,0.00,0.0,WeatherDisplay:10.37,2013-02-01 00:31:00,
2013-02-01 01:36:00,41.7,34.7,28.67,NNE,30,5.8,5.8,76,0.00,CLR,FEW,0.00,0.0,WeatherDisplay:10.37,2013-02-01 00:36:00,
2013-02-01 01:41:00,41.9,34.9,28.67,North,0,10.4,10.5,76,0.00,CLR,FEW,0.00,0.0,WeatherDisplay:10.37,2013-02-01 00:41:00,
2013-02-01 01:46:00,42.1,35.4,28.67,NW,325,10.4,10.5,77,0.00,CLR,FEW,0.00,0.0,WeatherDisplay:10.37,2013-02-01 00:46:00,
2013-02-01 01:51:00,41.9,35.5,28.67,East,80,15.0,15.0,78,0.00,CLR,FEW,0.00,0.0,WeatherDisplay:10.37,2013-02-01 00:51:00,
2013-02-01 01:56:00,41.5,35.5,28.67,North,355,7.0,7.0,79,0.00,CLR,FEW,0.00,0.0,WeatherDisplay:10.37,2013-02-01 00:56:00,
2013-02-01 02:01:00,41.5,35.5,28.67,North,355,6.9,7.0,79,0.00,CLR,FEW,0.00,0.0,WeatherDisplay:10.37,2013-02-01 01:01:00,
2013-02-01 02:06:00,41.4,35.7,28.67,North,350,8.1,8.1,80,0.00,CLR,FEW,0.00,0.0,WeatherDisplay:10.37,2013-02-01 01:06:00,
2013-02-01 02:11:00,41.4,35.7,28.67,NE,40,15.0,15.0,80,0.00,CLR,FEW,0.00,0.0,WeatherDisplay:10.37,2013-02-01 01:11:00,
2013-02-01 02:16:00,41.2,35.8,28.67,NNE,30,15.0,15.0,81,0.00,CLR,FEW,0.00,0.0,WeatherDisplay:10.37,2013-02-01 01:16:00,
2013-02-01 02:21:00,41.0,35.9,28.64,ENE,65,15.0,15.0,82,0.00,CLR,FEW,0.00,0.0,WeatherDisplay:10.37,2013-02-01 01:21:00,
2013-02-01 02:26:00,40.8,36.1,28.64,North,355,15.0,15.0,83,0.00,CLR,FEW,0.00,0.0,WeatherDisplay:10.37,2013-02-01 01:26:00,
2013-02-01 02:31:00,40.8,36.1,28.64,North,355,15.0,15.0,83,0.00,CLR,FEW,0.00,0.0,WeatherDisplay:10.37,2013-02-01 01:31:00,
2013-02-01 02:36:00,40.5,36.0,28.67,West,270,4.6,4.6,84,0.00,CLR,FEW,0.00,0.0,WeatherDisplay:10.37,2013-02-01 01:36:00,
2013-02-01 02:41:00,40.3,36.1,28.67,NNW,330,8.1,8.3,85,0.00,CLR,FEW,0.00,0.0,WeatherDisplay:10.37,2013-02-01 01:41:00,
2013-02-01 02:46:00,40.1,36.2,28.67,NW,320,2.3,2.8,86,0.00,CLR,FEW,0.00,0.0,WeatherDisplay:10.37,2013-02-01 01:46:00,
2013-02-01 02:51:00,39.9,36.1,28.67,NNE,20,2.3,2.6,86,0.00,CLR,FEW,0.00,0.0,WeatherDisplay:10.37,2013-02-01 01:51:00,
2013-02-01 02:56:00,39.9,36.4,28.67,NE,55,9.2,9.2,87,0.00,CLR,FEW,0.00,0.0,WeatherDisplay:10.37,2013-02-01 01:56:00,
2013-02-01 03:01:00,39.7,36.2,28.67,NNE,30,5.8,5.8,87,0.00,CLR,FEW,0.00,0.0,WeatherDisplay:10.37,2013-02-01 02:01:00,
2013-02-01 03:06:00,39.7,36.2,28.67,NNE,30,5.8,5.8,87,0.00,CLR,FEW,0.00,0.0,WeatherDisplay:10.37,2013-02-01 02:06:00,
2013-02-01 03:11:00,39.2,35.9,28.67,NNW,335,6.9,6.9,88,0.01,RA,FEW,0.01,0.0,WeatherDisplay:10.37,2013-02-01 02:11:00,
2013-02-01 03:16:00,38.7,36.0,28.67,NNW,335,9.2,9.2,90,0.03,RA,FEW,0.03,0.0,WeatherDisplay:10.37,2013-02-01 02:16:00,
2013-02-01 03:21:00,38.3,35.3,28.64,NNE,15,6.9,7.1,89,0.03,CLR,FEW,0.03,0.0,WeatherDisplay:10.37,2013-02-01 02:21:00,
2013-02-01 03:26:00,37.9,35.0,28.64,North,355,8.1,8.3,89,0.03,CLR,FEW,0.03,0.0,WeatherDisplay:10.37,2013-02-01 02:26:00,
2013-02-01 03:31:00,37.9,35.0,28.64,North,355,8.1,8.3,89,0.03,CLR,FEW,0.03,0.0,WeatherDisplay:10.37,2013-02-01 02:31:00,
2013-02-01 03:36:00,37.6,34.9,28.64,NNW,340,6.9,6.9,90,0.03,CLR,FEW,0.03,0.0,WeatherDisplay:10.37,2013-02-01 02:36:00,
2013-02-01 03:41:00,37.6,34.9,28.64,NNW,340,6.9,6.9,90,0.03,CLR,FEW,0.03,0.0,WeatherDisplay:10.37,2013-02-01 02:41:00,
2013-02-01 03:46:00,37.0,34.7,28.64,NNW,330,1.1,1.1,91,0.03,CLR,FEW,0.03,0.0,WeatherDisplay:10.37,2013-02-01 02:46:00,
2013-02-01 03:51:00,36.9,34.8,28.67,NW,315,3.5,3.5,92,0.03,CLR,FEW,0.03,0.0,WeatherDisplay:10.37,2013-02-01 02:51:00,
2013-02-01 03:56:00,36.5,34.4,28.67,NNW,330,0.0,0.0,92,0.03,CLR,FEW,0.03,0.0,WeatherDisplay:10.37,2013-02-01 02:56:00,
2013-02-01 04:01:00,36.3,34.2,28.67,NW,325,2.3,2.6,92,0.03,CLR,FEW,0.03,0.0,WeatherDisplay:10.37,2013-02-01 03:01:00,
2013-02-01 04:06:00,36.3,34.2,28.67,NW,325,2.3,2.6,92,0.03,CLR,FEW,0.03,0.0,WeatherDisplay:10.37,2013-02-01 03:06:00,
2013-02-01 04:11:00,35.8,33.7,28.64,WSW,240,0.0,0.0,92,0.02,CLR,FEW,0.03,0.0,WeatherDisplay:10.37,2013-02-01 03:11:00,
2013-02-01 04:16:00,36.1,34.3,28.64,NNE,20,1.1,1.3,93,0.00,CLR,FEW,0.03,0.0,WeatherDisplay:10.37,2013-02-01 03:16:00,
2013-02-01 04:21:00,36.7,34.8,28.64,NNW,335,1.1,1.3,93,0.00,CLR,FEW,0.03,0.0,WeatherDisplay:10.37,2013-02-01 03:21:00,
2013-02-01 04:26:00,36.1,34.3,28.64,NW,325,0.0,0.0,93,0.00,CLR,FEW,0.03,0.0,WeatherDisplay:10.37,2013-02-01 03:26:00,
2013-02-01 04:31:00,36.1,34.3,28.64,NW,325,0.0,0.0,93,0.00,CLR,FEW,0.03,0.0,WeatherDisplay:10.37,2013-02-01 03:31:00,
2013-02-01 04:36:00,36.3,34.5,28.64,NW,320,0.0,0.0,93,0.00,CLR,FEW,0.03,0.0,WeatherDisplay:10.37,2013-02-01 03:36:00,
2013-02-01 04:41:00,36.7,34.8,28.64,WNW,295,2.3,2.6,93,0.00,CLR,FEW,0.03,0.0,WeatherDisplay:10.37,2013-02-01 03:41:00,
2013-02-01 04:46:00,36.1,34.0,28.64,NNW,335,0.0,0.0,92,0.00,CLR,FEW,0.03,0.0,WeatherDisplay:10.37,2013-02-01 03:46:00,
2013-02-01 04:51:00,36.9,35.0,28.64,NNW,345,1.1,1.1,93,0.00,CLR,FEW,0.03,0.0,WeatherDisplay:10.37,2013-02-01 03:51:00,
2013-02-01 04:56:00,36.7,34.6,28.64,NNW,340,0.0,0.0,92,0.00,CLR,FEW,0.03,0.0,WeatherDisplay:10.37,2013-02-01 03:56:00,
2013-02-01 05:01:00,36.7,34.6,28.64,North,10,0.0,0.0,92,0.00,CLR,FEW,0.03,0.0,WeatherDisplay:10.37,2013-02-01 04:01:00,
2013-02-01 05:06:00,36.7,34.6,28.64,North,10,0.0,0.0,92,0.00,CLR,FEW,0.03,0.0,WeatherDisplay:10.37,2013-02-01 04:06:00,
2013-02-01 05:11:00,36.7,34.8,28.64,WNW,285,0.0,0.0,93,0.00,CLR,FEW,0.03,0.0,WeatherDisplay:10.37,2013-02-01 04:11:00,
2013-02-01 05:16:00,36.7,34.8,28.64,SSW,195,0.0,0.0,93,0.00,CLR,FEW,0.03,0.0,WeatherDisplay:10.37,2013-02-01 04:16:00,
2013-02-01 05:21:00,36.7,34.8,28.64,WSW,240,0.0,0.0,93,0.00,CLR,FEW,0.03,0.0,WeatherDisplay:10.37,2013-02-01 04:21:00,
2013-02-01 05:26:00,36.9,35.0,28.64,SW,215,0.0,0.0,93,0.00,CLR,FEW,0.03,0.0,WeatherDisplay:10.37,2013-02-01 04:26:00,
2013-02-01 05:31:00,36.9,35.0,28.64,SW,215,0.0,0.0,93,0.00,CLR,FEW,0.03,0.0,WeatherDisplay:10.37,2013-02-01 04:31:00,
2013-02-01 05:36:00,36.7,34.8,28.64,SSW,195,0.0,0.0,93,0.00,CLR,FEW,0.03,0.0,WeatherDisplay:10.37,2013-02-01 04:36:00,
2013-02-01 05:41:00,36.9,35.0,28.64,SW,235,0.0,0.0,93,0.00,CLR,FEW,0.03,0.0,WeatherDisplay:10.37,2013-02-01 04:41:00,
2013-02-01 05:46:00,36.7,34.8,28.64,North,10,0.0,0.0,93,0.00,CLR,FEW,0.03,0.0,WeatherDisplay:10.37,2013-02-01 04:46:00,
2013-02-01 05:51:00,36.7,35.1,28.64,WSW,240,0.0,0.0,94,0.00,CLR,FEW,0.03,0.0,WeatherDisplay:10.37,2013-02-01 04:51:00,
2013-02-01 05:56:00,36.7,35.1,28.64,SW,225,0.0,0.0,94,0.00,CLR,FEW,0.03,0.0,WeatherDisplay:10.37,2013-02-01 04:56:00,
2013-02-01 06:00:00,36.7,35.1,28.64,SW,231,0.0,0.0,94,0.00,CLR,FEW,0.04,0.0,WeatherDisplay:10.37,2013-02-01 05:00:00,
2013-02-01 06:01:00,36.7,35.1,28.64,SW,225,0.0,0.0,94,0.00,CLR,FEW,0.03,0.0,WeatherDisplay:10.37,2013-02-01 05:01:00,
2013-02-01 06:04:00,36.9,35.3,28.64,WSW,250,0.0,0.0,94,0.00,CLR,FEW,0.03,0.0,WeatherDisplay:10.37,2013-02-01 05:04:00,
2013-02-01 06:09:00,36.9,35.3,28.64,West,260,0.0,0.0,94,0.00,CLR,FEW,0.03,0.0,WeatherDisplay:10.37,2013-02-01 05:09:00,
2013-02-01 06:14:00,37.2,35.7,28.64,North,10,4.6,4.6,94,0.00,CLR,FEW,0.03,0.0,WeatherDisplay:10.37,2013-02-01 05:14:00,
2013-02-01 06:19:00,37.2,35.7,28.64,North,10,4.6,4.6,94,0.00,CLR,FEW,0.03,0.0,WeatherDisplay:10.37,2013-02-01 05:19:00,
2013-02-01 06:24:00,38.1,36.3,28.64,North,0,6.9,7.3,93,0.00,CLR,FEW,0.03,0.0,WeatherDisplay:10.37,2013-02-01 05:24:00,
2013-02-01 06:29:00,38.5,36.1,28.64,NNE,15,4.6,4.7,91,0.00,CLR,FEW,0.03,0.0,WeatherDisplay:10.37,2013-02-01 05:29:00,
2013-02-01 06:34:00,38.7,36.0,28.64,NNW,335,4.6,4.9,90,0.00,CLR,FEW,0.03,0.0,WeatherDisplay:10.37,2013-02-01 05:34:00,
2013-02-01 06:39:00,39.2,36.2,28.64,NNE,15,8.1,8.1,89,0.00,CLR,FEW,0.03,0.0,WeatherDisplay:10.37,2013-02-01 05:39:00,
2013-02-01 06:44:00,39.4,36.1,28.64,NE,40,5.8,5.8,88,0.00,CLR,FEW,0.03,0.0,WeatherDisplay:10.37,2013-02-01 05:44:00,
2013-02-01 06:49:00,39.4,36.1,28.64,NE,40,5.8,5.8,88,0.00,CLR,FEW,0.03,0.0,WeatherDisplay:10.37,2013-02-01 05:49:00,
2013-02-01 06:54:00,39.7,36.5,28.64,NNE,20,10.4,10.4,88,0.00,CLR,FEW,0.03,0.0,WeatherDisplay:10.37,2013-02-01 05:54:00,
2013-02-01 06:59:00,39.9,36.1,28.64,NW,305,5.8,6.0,86,0.00,CLR,FEW,0.03,0.0,WeatherDisplay:10.37,2013-02-01 05:59:00,
2013-02-01 07:04:00,40.1,36.2,28.64,NNW,345,5.8,5.8,86,0.00,CLR,FEW,0.03,0.0,WeatherDisplay:10.37,2013-02-01 06:04:00,
2013-02-01 07:09:00,39.9,36.1,28.64,NW,325,6.9,7.1,86,0.00,OVC,FEW,0.03,0.0,WeatherDisplay:10.37,2013-02-01 06:09:00,
2013-02-01 07:14:00,39.7,35.9,28.64,North,0,4.6,4.9,86,0.00,OVC,FEW,0.03,0.0,WeatherDisplay:10.37,2013-02-01 06:14:00,
2013-02-01 07:19:00,39.7,35.9,28.64,North,0,4.6,4.9,86,0.00,OVC,FEW,0.03,0.0,WeatherDisplay:10.37,2013-02-01 06:19:00,
2013-02-01 07:24:00,39.9,36.1,28.64,NE,45,5.8,5.8,86,0.00,OVC,FEW,0.03,0.0,WeatherDisplay:10.37,2013-02-01 06:24:00,
2013-02-01 07:29:00,39.9,36.1,28.64,West,275,6.9,6.9,86,0.00,OVC,FEW,0.03,0.0,WeatherDisplay:10.37,2013-02-01 06:29:00,
2013-02-01 07:34:00,40.3,36.4,28.64,NNW,335,8.1,8.1,86,0.00,OVC,FEW,0.03,0.0,WeatherDisplay:10.37,2013-02-01 06:34:00,
2013-02-01 07:39:00,40.1,36.2,28.64,NE,50,3.5,3.8,86,0.00,OVC,FEW,0.03,0.0,WeatherDisplay:10.37,2013-02-01 06:39:00,
2013-02-01 07:44:00,40.3,36.1,28.64,NW,315,5.8,5.8,85,0.00,OVC,FEW,0.03,0.0,WeatherDisplay:10.37,2013-02-01 06:44:00,
2013-02-01 07:49:00,40.3,36.1,28.64,NW,315,5.8,5.8,85,0.00,OVC,FEW,0.03,0.0,WeatherDisplay:10.37,2013-02-01 06:49:00,
2013-02-01 07:54:00,40.3,36.1,28.64,NNW,345,4.6,5.1,85,0.00,OVC,FEW,0.03,0.0,WeatherDisplay:10.37,2013-02-01 06:54:00,
2013-02-01 07:59:00,40.3,36.1,28.64,NNW,345,4.6,5.1,85,0.00,OVC,FEW,0.03,0.0,WeatherDisplay:10.37,2013-02-01 06:59:00,
2013-02-01 08:04:00,40.5,36.3,28.64,North,355,5.8,5.8,85,0.00,OVC,FEW,0.03,0.0,WeatherDisplay:10.37,2013-02-01 07:04:00,
2013-02-01 08:09:00,40.5,36.0,28.64,North,5,3.5,4.0,84,0.00,OVC,FEW,0.03,0.0,WeatherDisplay:10.37,2013-02-01 07:09:00,
2013-02-01 08:15:00,40.3,35.8,28.64,NNE,20,2.3,2.4,84,0.00,OVC,FEW,0.03,0.0,WeatherDisplay:10.37,2013-02-01 07:15:00,
2013-02-01 08:20:00,40.3,35.8,28.64,NNE,20,2.3,2.4,84,0.00,OVC,FEW,0.03,0.0,WeatherDisplay:10.37,2013-02-01 07:20:00,
2013-02-01 08:25:00,40.6,36.2,28.61,NNW,330,3.5,4.0,84,0.00,OVC,FEW,0.03,0.0,WeatherDisplay:10.37,2013-02-01 07:25:00,
2013-02-01 08:30:00,40.8,36.1,28.61,West,270,5.8,5.8,83,0.00,OVC,FEW,0.03,0.0,WeatherDisplay:10.37,2013-02-01 07:30:00,
2013-02-01 08:35:00,40.8,36.1,28.64,West,260,5.8,5.8,83,0.00,OVC,FEW,0.03,0.0,WeatherDisplay:10.37,2013-02-01 07:35:00,
2013-02-01 08:40:00,40.8,36.1,28.64,NNE,30,0.0,0.6,83,0.00,OVC,FEW,0.03,0.0,WeatherDisplay:10.37,2013-02-01 07:40:00,
2013-02-01 08:45:00,41.0,36.2,28.64,NW,320,5.8,6.2,83,0.00,OVC,FEW,0.03,0.0,WeatherDisplay:10.37,2013-02-01 07:45:00,
2013-02-01 08:50:00,41.0,36.2,28.64,NW,320,5.8,6.2,83,0.00,OVC,FEW,0.03,0.0,WeatherDisplay:10.37,2013-02-01 07:50:00,
2013-02-01 08:55:00,41.4,36.3,28.64,NNE,30,5.8,5.8,82,0.00,OVC,FEW,0.03,0.0,WeatherDisplay:10.37,2013-02-01 07:55:00,
2013-02-01 09:00:00,41.4,36.6,28.64,North,0,3.5,4.0,83,0.00,OVC,FEW,0.03,0.0,WeatherDisplay:10.37,2013-02-01 08:00:00,
2013-02-01 09:05:00,41.4,36.6,28.64,NNE,25,3.5,3.5,83,0.00,OVC,FEW,0.03,0.0,WeatherDisplay:10.37,2013-02-01 08:05:00,
2013-02-01 09:10:00,41.5,36.5,28.64,NE,35,11.5,11.5,82,0.00,OVC,FEW,0.03,0.0,WeatherDisplay:10.37,2013-02-01 08:10:00,
2013-02-01 09:15:00,41.5,36.1,28.64,NNW,330,8.1,8.1,81,0.00,OVC,FEW,0.03,0.0,WeatherDisplay:10.37,2013-02-01 08:15:00,
2013-02-01 09:20:00,41.5,36.1,28.64,NNW,330,8.1,8.1,81,0.00,OVC,FEW,0.03,0.0,WeatherDisplay:10.37,2013-02-01 08:20:00,
2013-02-01 09:25:00,41.9,36.5,28.61,NNE,15,10.4,10.4,81,0.00,OVC,FEW,0.03,0.0,WeatherDisplay:10.37,2013-02-01 08:25:00,
2013-02-01 09:30:00,42.1,36.4,28.61,SSE,160,6.9,6.9,80,0.00,OVC,FEW,0.03,0.0,WeatherDisplay:10.37,2013-02-01 08:30:00,
2013-02-01 09:35:00,42.3,36.2,28.61,ENE,75,13.8,13.8,79,0.00,OVC,FEW,0.03,0.0,WeatherDisplay:10.37,2013-02-01 08:35:00,
2013-02-01 09:40:00,42.3,36.2,28.61,ENE,75,13.8,13.8,79,0.00,OVC,FEW,0.03,0.0,WeatherDisplay:10.37,2013-02-01 08:40:00,
2013-02-01 09:45:00,42.4,36.4,28.61,NNE,15,12.7,13.2,79,0.00,OVC,FEW,0.03,0.0,WeatherDisplay:10.37,2013-02-01 08:45:00,
2013-02-01 09:50:00,42.4,36.4,28.61,NNE,15,12.7,13.2,79,0.00,OVC,FEW,0.03,0.0,WeatherDisplay:10.37,2013-02-01 08:50:00,
2013-02-01 09:55:00,42.4,36.4,28.61,North,0,5.8,5.8,79,0.00,OVC,FEW,0.03,0.0,WeatherDisplay:10.37,2013-02-01 08:55:00,
2013-02-01 10:00:00,42.4,36.4,28.61,West,270,6.9,6.9,79,0.00,OVC,FEW,0.03,0.0,WeatherDisplay:10.37,2013-02-01 09:00:00,
2013-02-01 10:05:00,42.6,36.2,28.61,NNW,345,8.1,8.5,78,0.00,OVC,FEW,0.03,0.0,WeatherDisplay:10.37,2013-02-01 09:05:00,
2013-02-01 10:10:00,42.8,36.1,28.61,NNW,330,10.4,10.4,77,0.00,OVC,FEW,0.03,0.0,WeatherDisplay:10.37,2013-02-01 09:10:00,
2013-02-01 10:15:00,43.0,36.3,28.61,NW,320,8.1,8.1,77,0.00,OVC,FEW,0.03,0.0,WeatherDisplay:10.37,2013-02-01 09:15:00,
2013-02-01 10:20:00,43.0,36.3,28.61,NW,320,8.1,8.1,77,0.00,OVC,FEW,0.03,0.0,WeatherDisplay:10.37,2013-02-01 09:20:00,
2013-02-01 10:25:00,43.2,36.1,28.61,North,355,9.2,9.8,76,0.00,OVC,FEW,0.03,0.0,WeatherDisplay:10.37,2013-02-01 09:25:00,
2013-02-01 10:30:00,43.3,36.3,28.61,North,5,10.4,10.7,76,0.00,OVC,FEW,0.03,0.0,WeatherDisplay:10.37,2013-02-01 09:30:00,
2013-02-01 10:35:00,43.5,36.1,28.61,NW,310,9.2,9.4,75,0.00,OVC,FEW,0.03,0.0,WeatherDisplay:10.37,2013-02-01 09:35:00,
2013-02-01 10:40:00,43.5,36.1,28.61,NNW,335,12.7,13.0,75,0.00,OVC,FEW,0.03,0.0,WeatherDisplay:10.37,2013-02-01 09:40:00,
2013-02-01 10:45:00,43.7,36.3,28.61,NW,310,13.8,13.8,75,0.00,OVC,FEW,0.03,0.0,WeatherDisplay:10.37,2013-02-01 09:45:00,
2013-02-01 10:50:00,43.7,36.3,28.61,NW,310,13.8,13.8,75,0.00,OVC,FEW,0.03,0.0,WeatherDisplay:10.37,2013-02-01 09:50:00,
2013-02-01 10:55:00,43.9,36.5,28.61,North,5,5.8,6.0,75,0.00,OVC,FEW,0.03,0.0,WeatherDisplay:10.37,2013-02-01 09:55:00,
2013-02-01 11:00:00,44.1,36.3,28.61,NW,305,6.9,7.1,74,0.00,OVC,FEW,0.03,0.0,WeatherDisplay:10.37,2013-02-01 10:00:00,
2013-02-01 11:05:00,44.2,36.1,28.61,North,350,8.1,8.1,73,0.00,OVC,FEW,0.03,0.0,WeatherDisplay:10.37,2013-02-01 10:05:00,
2013-02-01 11:10:00,44.2,36.1,28.61,ENE,65,8.1,8.3,73,0.00,OVC,FEW,0.03,0.0,WeatherDisplay:10.37,2013-02-01 10:10:00,
2013-02-01 11:15:00,44.4,36.3,28.61,NNW,340,8.1,8.1,73,0.00,OVC,FEW,0.03,0.0,WeatherDisplay:10.37,2013-02-01 10:15:00,
2013-02-01 11:20:00,44.4,36.3,28.61,NNW,340,8.1,8.1,73,0.00,OVC,FEW,0.03,0.0,WeatherDisplay:10.37,2013-02-01 10:20:00,
2013-02-01 11:25:00,44.4,36.3,28.61,NW,325,6.9,6.9,73,0.00,OVC,FEW,0.03,0.0,WeatherDisplay:10.37,2013-02-01 10:25:00,
2013-02-01 11:30:00,44.4,36.0,28.61,North,0,6.9,6.9,72,0.00,OVC,FEW,0.03,0.0,WeatherDisplay:10.37,2013-02-01 10:30:00,
2013-02-01 11:35:00,44.4,36.0,28.58,NNE,20,10.4,10.7,72,0.00,OVC,FEW,0.03,0.0,WeatherDisplay:10.37,2013-02-01 10:35:00,
2013-02-01 11:40:00,44.6,36.5,28.58,NNE,15,4.6,5.1,73,0.00,OVC,FEW,0.03,0.0,WeatherDisplay:10.37,2013-02-01 10:40:00,
2013-02-01 11:45:00,44.8,36.7,28.58,NNW,335,2.3,2.6,73,0.00,OVC,FEW,0.03,0.0,WeatherDisplay:10.37,2013-02-01 10:45:00,
2013-02-01 11:50:00,44.8,36.7,28.58,NNW,335,2.3,2.6,73,0.00,OVC,FEW,0.03,0.0,WeatherDisplay:10.37,2013-02-01 10:50:00,
2013-02-01 11:55:00,44.6,36.1,28.58,NNE,20,6.9,6.9,72,0.00,OVC,FEW,0.03,0.0,WeatherDisplay:10.37,2013-02-01 10:55:00,
2013-02-01 12:00:00,44.6,36.5,28.58,NNE,14,7.0,11.0,73,0.00,OVC,FEW,0.04,0.0,WeatherDisplay:10.37,2013-02-01 11:00:00,
2013-02-01 12:05:00,44.4,36.3,28.58,West,270,8.1,8.1,73,0.00,OVC,FEW,0.03,0.0,WeatherDisplay:10.37,2013-02-01 11:05:00,
2013-02-01 12:10:00,44.8,36.7,28.58,NW,315,5.8,5.8,73,0.00,OVC,FEW,0.03,0.0,WeatherDisplay:10.37,2013-02-01 11:10:00,
2013-02-01 12:15:00,44.8,36.7,28.58,NW,305,12.7,12.8,73,0.00,OVC,FEW,0.03,0.0,WeatherDisplay:10.37,2013-02-01 11:15:00,
2013-02-01 12:20:00,44.8,36.7,28.58,NNE,30,11.5,11.5,73,0.00,OVC,FEW,0.03,0.0,WeatherDisplay:10.37,2013-02-01 11:20:00,
2013-02-01 12:25:00,44.8,36.7,28.58,NNE,30,11.5,11.5,73,0.00,OVC,FEW,0.03,0.0,WeatherDisplay:10.37,2013-02-01 11:25:00,
2013-02-01 12:30:00,44.6,36.8,28.58,NNW,330,9.2,9.8,74,0.00,OVC,FEW,0.03,0.0,WeatherDisplay:10.37,2013-02-01 11:30:00,
2013-02-01 12:35:00,44.6,36.8,28.58,NNW,330,9.2,9.8,74,0.00,OVC,FEW,0.03,0.0,WeatherDisplay:10.37,2013-02-01 11:35:00,
2013-02-01 12:40:00,44.8,37.0,28.58,WNW,300,15.0,15.4,74,0.00,OVC,FEW,0.03,0.0,WeatherDisplay:10.37,2013-02-01 11:40:00,
2013-02-01 12:45:00,44.8,37.0,28.58,North,355,6.9,6.9,74,0.00,OVC,FEW,0.03,0.0,WeatherDisplay:10.37,2013-02-01 11:45:00,
2013-02-01 12:50:00,45.0,37.2,28.56,NW,315,8.1,8.1,74,0.00,OVC,FEW,0.03,0.0,WeatherDisplay:10.37,2013-02-01 11:50:00,
2013-02-01 12:55:00,45.0,37.2,28.56,NW,315,8.1,8.1,74,0.00,OVC,FEW,0.03,0.0,WeatherDisplay:10.37,2013-02-01 11:55:00,
2013-02-01 13:00:00,45.0,37.2,28.56,WNW,290,6.9,7.0,74,0.00,OVC,FEW,0.03,0.0,WeatherDisplay:10.37,2013-02-01 12:00:00,
2013-02-01 13:05:00,45.0,37.2,28.56,NW,320,9.2,9.2,74,0.00,OVC,FEW,0.03,0.0,WeatherDisplay:10.37,2013-02-01 12:05:00,
2013-02-01 13:10:00,44.8,37.0,28.56,North,5,9.2,9.6,74,0.00,OVC,FEW,0.03,0.0,WeatherDisplay:10.37,2013-02-01 12:10:00,
2013-02-01 13:15:00,45.0,37.2,28.56,NW,325,3.5,3.5,74,0.00,OVC,FEW,0.03,0.0,WeatherDisplay:10.37,2013-02-01 12:15:00,
2013-02-01 13:20:00,44.8,37.0,28.56,NNW,340,5.8,5.8,74,0.00,OVC,FEW,0.03,0.0,WeatherDisplay:10.37,2013-02-01 12:20:00,
2013-02-01 13:25:00,44.8,37.0,28.56,NNW,340,5.8,5.8,74,0.00,OVC,FEW,0.03,0.0,WeatherDisplay:10.37,2013-02-01 12:25:00,
2013-02-01 13:30:00,44.8,37.0,28.56,NNW,330,5.8,5.8,74,0.00,OVC,FEW,0.03,0.0,WeatherDisplay:10.37,2013-02-01 12:30:00,
2013-02-01 13:35:00,44.8,37.0,28.56,NNW,330,5.8,5.8,74,0.00,OVC,FEW,0.03,0.0,WeatherDisplay:10.37,2013-02-01 12:35:00,
2013-02-01 13:40:00,44.8,37.0,28.56,North,0,2.3,2.3,74,0.00,OVC,FEW,0.03,0.0,WeatherDisplay:10.37,2013-02-01 12:40:00,
2013-02-01 13:45:00,45.0,37.2,28.56,NE,45,4.6,4.6,74,0.00,OVC,FEW,0.03,0.0,WeatherDisplay:10.37,2013-02-01 12:45:00,
2013-02-01 13:50:00,45.0,37.2,28.53,NW,310,2.3,2.4,74,0.00,OVC,FEW,0.03,0.0,WeatherDisplay:10.37,2013-02-01 12:50:00,
2013-02-01 13:55:00,45.0,37.2,28.53,NW,310,2.3,2.4,74,0.00,OVC,FEW,0.03,0.0,WeatherDisplay:10.37,2013-02-01 12:55:00,
2013-02-01 14:00:00,45.0,37.2,28.53,WNW,285,1.1,1.1,74,0.00,OVC,FEW,0.03,0.0,WeatherDisplay:10.37,2013-02-01 13:00:00,
2013-02-01 14:05:00,45.1,37.3,28.53,North,5,1.1,1.3,74,0.00,OVC,FEW,0.03,0.0,WeatherDisplay:10.37,2013-02-01 13:05:00,
2013-02-01 14:10:00,45.0,36.8,28.53,WNW,300,3.5,3.5,73,0.00,OVC,FEW,0.03,0.0,WeatherDisplay:10.37,2013-02-01 13:10:00,
2013-02-01 14:15:00,45.3,37.5,28.53,North,355,2.3,2.3,74,0.00,OVC,FEW,0.03,0.0,WeatherDisplay:10.37,2013-02-01 13:15:00,
2013-02-01 14:20:00,45.3,37.2,28.50,NNW,330,5.8,5.8,73,0.00,OVC,FEW,0.03,0.0,WeatherDisplay:10.37,2013-02-01 13:20:00,
2013-02-01 14:25:00,45.3,37.2,28.50,NNW,330,5.8,5.8,73,0.00,OVC,FEW,0.03,0.0,WeatherDisplay:10.37,2013-02-01 13:25:00,
2013-02-01 14:30:00,45.1,36.6,28.50,NW,310,5.8,6.0,72,0.00,OVC,FEW,0.03,0.0,WeatherDisplay:10.37,2013-02-01 13:30:00,
2013-02-01 14:35:00,45.0,36.5,28.50,NW,315,2.3,2.3,72,0.00,OVC,FEW,0.03,0.0,WeatherDisplay:10.37,2013-02-01 13:35:00,
2013-02-01 14:40:00,44.8,36.3,28.50,NNW,335,3.5,3.5,72,0.00,OVC,FEW,0.03,0.0,WeatherDisplay:10.37,2013-02-01 13:40:00,
2013-02-01 14:45:00,44.8,36.3,28.50,NNW,335,1.1,1.5,72,0.00,OVC,FEW,0.03,0.0,WeatherDisplay:10.37,2013-02-01 13:45:00,
2013-02-01 14:50:00,44.8,36.3,28.47,WNW,290,3.5,3.8,72,0.00,OVC,FEW,0.03,0.0,WeatherDisplay:10.37,2013-02-01 13:50:00,
2013-02-01 14:55:00,44.8,36.3,28.47,WNW,290,3.5,3.8,72,0.00,OVC,FEW,0.03,0.0,WeatherDisplay:10.37,2013-02-01 13:55:00,
2013-02-01 15:01:00,44.8,36.3,28.47,NE,55,2.3,2.3,72,0.00,OVC,FEW,0.03,0.0,WeatherDisplay:10.37,2013-02-01 14:01:00,
2013-02-01 15:06:00,44.6,36.1,28.47,NE,35,3.5,3.5,72,0.00,OVC,FEW,0.03,0.0,WeatherDisplay:10.37,2013-02-01 14:06:00,
2013-02-01 15:11:00,44.6,36.1,28.47,WNW,290,1.1,1.1,72,0.00,OVC,FEW,0.03,0.0,WeatherDisplay:10.37,2013-02-01 14:11:00,
2013-02-01 15:16:00,44.4,35.6,28.47,NNW,335,6.9,6.9,71,0.00,OVC,FEW,0.03,0.0,WeatherDisplay:10.37,2013-02-01 14:16:00,
2013-02-01 15:21:00,44.2,35.8,28.47,North,355,4.6,4.7,72,0.00,OVC,FEW,0.03,0.0,WeatherDisplay:10.37,2013-02-01 14:21:00,
2013-02-01 15:26:00,44.2,35.8,28.47,North,355,4.6,4.7,72,0.00,OVC,FEW,0.03,0.0,WeatherDisplay:10.37,2013-02-01 14:26:00,
2013-02-01 15:31:00,44.2,35.8,28.47,North,355,4.6,4.7,72,0.00,OVC,FEW,0.03,0.0,WeatherDisplay:10.37,2013-02-01 14:31:00,
2013-02-01 15:36:00,44.1,36.0,28.47,North,350,2.3,2.8,73,0.00,OVC,FEW,0.03,0.0,WeatherDisplay:10.37,2013-02-01 14:36:00,
2013-02-01 15:41:00,43.9,35.8,28.47,North,350,2.3,2.6,73,0.00,OVC,FEW,0.03,0.0,WeatherDisplay:10.37,2013-02-01 14:41:00,
2013-02-01 15:46:00,43.7,36.0,28.47,West,280,5.8,5.8,74,0.00,OVC,FEW,0.03,0.0,WeatherDisplay:10.37,2013-02-01 14:46:00,
2013-02-01 15:51:00,43.3,35.9,28.47,NNE,20,5.8,5.8,75,0.00,OVC,FEW,0.03,0.0,WeatherDisplay:10.37,2013-02-01 14:51:00,
2013-02-01 15:56:00,43.3,35.9,28.47,NNE,20,5.8,5.8,75,0.00,OVC,FEW,0.03,0.0,WeatherDisplay:10.37,2013-02-01 14:56:00,
2013-02-01 16:01:00,43.2,36.1,28.47,NNW,340,2.3,2.6,76,0.00,OVC,FEW,0.03,0.0,WeatherDisplay:10.37,2013-02-01 15:01:00,
2013-02-01 16:06:00,43.0,36.3,28.47,NNE,20,0.0,0.4,77,0.00,OVC,FEW,0.03,0.0,WeatherDisplay:10.37,2013-02-01 15:06:00,
2013-02-01 16:11:00,42.6,36.2,28.44,NNE,30,2.3,2.3,78,0.00,OVC,FEW,0.03,0.0,WeatherDisplay:10.37,2013-02-01 15:11:00,
2013-02-01 16:16:00,42.4,36.4,28.44,NNW,340,0.0,0.0,79,0.00,OVC,FEW,0.03,0.0,WeatherDisplay:10.37,2013-02-01 15:16:00,
2013-02-01 16:21:00,42.1,36.7,28.44,North,0,2.3,2.6,81,0.00,OVC,FEW,0.03,0.0,WeatherDisplay:10.37,2013-02-01 15:21:00,
2013-02-01 16:26:00,42.1,36.7,28.44,North,0,2.3,2.6,81,0.00,OVC,FEW,0.03,0.0,WeatherDisplay:10.37,2013-02-01 15:26:00,
2013-02-01 16:31:00,41.9,36.5,28.44,WSW,250,0.0,0.0,81,0.01,RA,FEW,0.05,0.0,WeatherDisplay:10.37,2013-02-01 15:31:00,
2013-02-01 16:36:00,41.7,36.9,28.41,NE,55,2.3,2.8,83,0.01,OVC,FEW,0.05,0.0,WeatherDisplay:10.37,2013-02-01 15:36:00,
2013-02-01 16:41:00,41.4,36.9,28.41,West,275,2.3,2.3,84,0.01,OVC,FEW,0.05,0.0,WeatherDisplay:10.37,2013-02-01 15:41:00,
2013-02-01 16:46:00,41.0,36.8,28.41,NW,305,3.5,3.5,85,0.01,OVC,FEW,0.05,0.0,WeatherDisplay:10.37,2013-02-01 15:46:00,
2013-02-01 16:51:00,40.8,37.0,28.41,NE,45,0.0,0.0,86,0.02,RA,FEW,0.06,0.0,WeatherDisplay:10.37,2013-02-01 15:51:00,
2013-02-01 16:56:00,40.8,37.0,28.41,NE,45,0.0,0.0,86,0.02,RA,FEW,0.06,0.0,WeatherDisplay:10.37,2013-02-01 15:56:00,
2013-02-01 17:01:00,40.6,37.1,28.41,North,355,1.1,1.3,87,0.02,CLR,FEW,0.06,0.0,WeatherDisplay:10.37,2013-02-01 16:01:00,
2013-02-01 17:06:00,40.5,36.9,28.41,West,260,3.5,3.5,87,0.02,CLR,FEW,0.06,0.0,WeatherDisplay:10.37,2013-02-01 16:06:00,
2013-02-01 17:11:00,40.3,36.7,28.41,SE,135,3.5,3.8,87,0.03,RA,FEW,0.07,0.0,WeatherDisplay:10.37,2013-02-01 16:11:00,
2013-02-01 17:16:00,40.1,36.8,28.41,North,10,1.1,1.3,88,0.03,CLR,FEW,0.07,0.0,WeatherDisplay:10.37,2013-02-01 16:16:00,
2013-02-01 17:21:00,39.9,36.7,28.38,SSW,200,2.3,2.8,88,0.03,CLR,FEW,0.07,0.0,WeatherDisplay:10.37,2013-02-01 16:21:00,
2013-02-01 17:26:00,39.9,36.7,28.38,SSW,200,2.3,2.8,88,0.03,CLR,FEW,0.07,0.0,WeatherDisplay:10.37,2013-02-01 16:26:00,
2013-02-01 17:31:00,39.7,36.5,28.38,SW,230,1.1,1.7,88,0.02,CLR,FEW,0.07,0.0,WeatherDisplay:10.37,2013-02-01 16:31:00,
2013-02-01 17:36:00,39.7,36.5,28.35,WSW,255,3.5,3.8,88,0.03,RA,FEW,0.08,0.0,WeatherDisplay:10.37,2013-02-01 16:36:00,
2013-02-01 17:41:00,39.6,36.3,28.35,SE,125,6.9,6.9,88,0.03,CLR,FEW,0.08,0.0,WeatherDisplay:10.37,2013-02-01 16:41:00,
2013-02-01 17:46:00,39.7,36.5,28.35,SW,235,4.6,4.6,88,0.03,CLR,FEW,0.08,0.0,WeatherDisplay:10.37,2013-02-01 16:46:00,
2013-02-01 17:51:00,39.6,36.3,28.35,WSW,245,5.8,5.8,88,0.02,CLR,FEW,0.08,0.0,WeatherDisplay:10.37,2013-02-01 16:51:00,
2013-02-01 17:56:00,39.6,36.3,28.35,WSW,245,5.8,5.8,88,0.02,CLR,FEW,0.08,0.0,WeatherDisplay:10.37,2013-02-01 16:56:00,
2013-02-01 18:01:00,39.6,36.3,28.35,SSE,165,4.6,5.1,88,0.02,CLR,FEW,0.08,0.0,WeatherDisplay:10.37,2013-02-01 17:01:00,
2013-02-01 18:06:00,39.6,36.3,28.35,South,185,3.5,4.0,88,0.02,CLR,FEW,0.08,0.0,WeatherDisplay:10.37,2013-02-01 17:06:00,
2013-02-01 18:11:00,39.6,36.3,28.35,South,190,3.5,3.5,88,0.01,CLR,FEW,0.08,0.0,WeatherDisplay:10.37,2013-02-01 17:11:00,
2013-02-01 18:16:00,39.6,36.3,28.35,SSW,205,3.5,3.8,88,0.01,CLR,FEW,0.08,0.0,WeatherDisplay:10.37,2013-02-01 17:16:00,
2013-02-01 18:21:00,39.7,36.5,28.32,SSE,160,6.9,7.1,88,0.01,CLR,FEW,0.08,0.0,WeatherDisplay:10.37,2013-02-01 17:21:00,
2013-02-01 18:26:00,39.7,36.5,28.32,SSE,160,6.9,7.1,88,0.01,CLR,FEW,0.08,0.0,WeatherDisplay:10.37,2013-02-01 17:26:00,
2013-02-01 18:31:00,39.7,36.5,28.32,NE,40,0.0,0.0,88,0.01,CLR,FEW,0.08,0.0,WeatherDisplay:10.37,2013-02-01 17:31:00,
2013-02-01 18:36:00,39.6,36.3,28.32,SW,230,4.6,4.6,88,0.00,CLR,FEW,0.08,0.0,WeatherDisplay:10.37,2013-02-01 17:36:00,
2013-02-01 18:41:00,39.7,36.5,28.32,NNW,335,3.5,3.8,88,0.00,CLR,FEW,0.08,0.0,WeatherDisplay:10.37,2013-02-01 17:41:00,
2013-02-01 18:46:00,39.6,36.6,28.32,NW,320,4.6,5.1,89,0.00,CLR,FEW,0.08,0.0,WeatherDisplay:10.37,2013-02-01 17:46:00,
2013-02-01 18:51:00,39.7,36.8,28.32,NE,40,4.6,4.7,89,0.01,RA,FEW,0.09,0.0,WeatherDisplay:10.37,2013-02-01 17:51:00,
2013-02-01 18:56:00,39.7,36.8,28.32,NE,40,4.6,4.7,89,0.01,RA,FEW,0.09,0.0,WeatherDisplay:10.37,2013-02-01 17:56:00,
2013-02-01 19:01:00,39.7,36.8,28.32,NW,320,9.2,9.4,89,0.01,CLR,FEW,0.09,0.0,WeatherDisplay:10.37,2013-02-01 18:01:00,
2013-02-01 19:06:00,39.6,36.6,28.32,NW,310,3.5,4.0,89,0.01,CLR,FEW,0.09,0.0,WeatherDisplay:10.37,2013-02-01 18:06:00,
2013-02-01 19:11:00,39.6,36.9,28.29,NE,40,5.8,5.8,90,0.01,CLR,FEW,0.09,0.0,WeatherDisplay:10.37,2013-02-01 18:11:00,
2013-02-01 19:16:00,39.4,36.7,28.29,North,0,0.0,0.0,90,0.01,CLR,FEW,0.09,0.0,WeatherDisplay:10.37,2013-02-01 18:16:00,
2013-02-01 19:26:00,39.7,37.0,28.29,West,260,4.6,4.6,90,0.01,CLR,FEW,0.09,0.0,WeatherDisplay:10.37,2013-02-01 18:26:00,
2013-02-01 19:31:00,39.7,37.0,28.29,West,260,4.6,4.6,90,0.01,CLR,FEW,0.09,0.0,WeatherDisplay:10.37,2013-02-01 18:31:00,
2013-02-01 19:36:00,39.9,37.2,28.29,NW,320,5.8,6.2,90,0.01,CLR,FEW,0.09,0.0,WeatherDisplay:10.37,2013-02-01 18:36:00,
2013-02-01 19:41:00,39.7,37.0,28.29,SSW,195,1.1,1.5,90,0.01,CLR,FEW,0.09,0.0,WeatherDisplay:10.37,2013-02-01 18:41:00,
2013-02-01 19:46:00,39.9,36.9,28.29,WSW,250,3.5,3.5,89,0.02,RA,FEW,0.10,0.0,WeatherDisplay:10.37,2013-02-01 18:46:00,
2013-02-01 19:51:00,39.7,37.0,28.29,SE,125,3.5,3.5,90,0.01,CLR,FEW,0.10,0.0,WeatherDisplay:10.37,2013-02-01 18:51:00,
2013-02-01 19:56:00,39.7,37.0,28.29,East,90,2.3,2.6,90,0.01,CLR,FEW,0.10,0.0,WeatherDisplay:10.37,2013-02-01 18:56:00,
2013-02-01 20:01:00,39.6,36.9,28.29,NW,320,0.0,0.2,90,0.01,CLR,FEW,0.10,0.0,WeatherDisplay:10.37,2013-02-01 19:01:00,
2013-02-01 20:06:00,39.6,36.9,28.29,NW,320,0.0,0.2,90,0.01,CLR,FEW,0.10,0.0,WeatherDisplay:10.37,2013-02-01 19:06:00,
2013-02-01 20:11:00,39.4,36.7,28.26,ENE,75,0.0,0.4,90,0.01,CLR,FEW,0.10,0.0,WeatherDisplay:10.37,2013-02-01 19:11:00,
2013-02-01 20:16:00,39.4,37.0,28.26,SSE,155,2.3,2.3,91,0.01,CLR,FEW,0.10,0.0,WeatherDisplay:10.37,2013-02-01 19:16:00,
2013-02-01 20:21:00,39.4,37.0,28.26,South,175,5.8,5.8,91,0.02,RA,FEW,0.12,0.0,WeatherDisplay:10.37,2013-02-01 19:21:00,
2013-02-01 20:26:00,39.4,37.0,28.26,SSW,205,4.6,4.6,91,0.02,CLR,FEW,0.12,0.0,WeatherDisplay:10.37,2013-02-01 19:26:00,
2013-02-01 20:31:00,39.4,37.0,28.26,SSW,205,4.6,4.6,91,0.02,CLR,FEW,0.12,0.0,WeatherDisplay:10.37,2013-02-01 19:31:00,
2013-02-01 20:36:00,39.4,37.0,28.26,SSW,205,3.5,3.5,91,0.02,CLR,FEW,0.12,0.0,WeatherDisplay:10.37,2013-02-01 19:36:00,
2013-02-01 20:41:00,39.4,37.0,28.26,SSW,195,3.5,3.5,91,0.02,CLR,FEW,0.12,0.0,WeatherDisplay:10.37,2013-02-01 19:41:00,
2013-02-01 20:46:00,39.4,37.0,28.26,SSW,195,0.0,0.0,91,0.01,CLR,FEW,0.12,0.0,WeatherDisplay:10.37,2013-02-01 19:46:00,
2013-02-01 20:51:00,39.4,37.0,28.23,South,190,2.3,2.6,91,0.01,CLR,FEW,0.12,0.0,WeatherDisplay:10.37,2013-02-01 19:51:00,
2013-02-01 20:56:00,39.4,37.0,28.23,SW,235,3.5,3.8,91,0.01,CLR,FEW,0.12,0.0,WeatherDisplay:10.37,2013-02-01 19:56:00,
2013-02-01 21:01:00,39.4,37.0,28.23,SSW,195,5.8,5.8,91,0.01,CLR,FEW,0.12,0.0,WeatherDisplay:10.37,2013-02-01 20:01:00,
2013-02-01 21:06:00,39.4,37.0,28.23,SSW,195,5.8,5.8,91,0.01,CLR,FEW,0.12,0.0,WeatherDisplay:10.37,2013-02-01 20:06:00,
2013-02-01 21:11:00,39.4,37.0,28.23,South,185,2.3,2.3,91,0.01,CLR,FEW,0.12,0.0,WeatherDisplay:10.37,2013-02-01 20:11:00,
2013-02-01 21:16:00,39.4,37.0,28.23,SW,215,3.5,3.5,91,0.01,CLR,FEW,0.12,0.0,WeatherDisplay:10.37,2013-02-01 20:16:00,
2013-02-01 21:21:00,39.2,36.8,28.20,South,170,0.0,0.0,91,0.00,CLR,FEW,0.12,0.0,WeatherDisplay:10.37,2013-02-01 20:21:00,
2013-02-01 21:26:00,39.2,37.1,28.20,West,280,0.0,0.0,92,0.00,CLR,FEW,0.12,0.0,WeatherDisplay:10.37,2013-02-01 20:26:00,
2013-02-01 21:31:00,39.2,37.1,28.20,West,280,0.0,0.0,92,0.00,CLR,FEW,0.12,0.0,WeatherDisplay:10.37,2013-02-01 20:31:00,
2013-02-01 21:36:00,39.2,37.1,28.20,WSW,250,0.0,0.0,92,0.00,CLR,FEW,0.12,0.0,WeatherDisplay:10.37,2013-02-01 20:36:00,
2013-02-01 21:41:00,39.2,37.1,28.20,NNW,340,5.8,5.8,92,0.00,CLR,FEW,0.12,0.0,WeatherDisplay:10.37,2013-02-01 20:41:00,
2013-02-01 21:46:00,39.2,37.1,28.20,SW,235,3.5,4.0,92,0.00,CLR,FEW,0.12,0.0,WeatherDisplay:10.37,2013-02-01 20:46:00,
2013-02-01 21:51:00,39.2,36.8,28.20,SW,225,2.3,2.8,91,0.00,CLR,FEW,0.12,0.0,WeatherDisplay:10.37,2013-02-01 20:51:00,
2013-02-01 21:56:00,39.2,36.8,28.20,WSW,245,0.0,0.4,91,0.00,CLR,FEW,0.12,0.0,WeatherDisplay:10.37,2013-02-01 20:56:00,
2013-02-01 22:01:00,39.0,36.9,28.20,SW,230,1.1,1.7,92,0.00,CLR,FEW,0.12,0.0,WeatherDisplay:10.37,2013-02-01 21:01:00,
2013-02-01 22:06:00,39.0,36.9,28.20,SW,230,1.1,1.7,92,0.00,CLR,FEW,0.12,0.0,WeatherDisplay:10.37,2013-02-01 21:06:00,
2013-02-01 22:11:00,39.0,36.9,28.17,SSE,165,3.5,3.5,92,0.00,CLR,FEW,0.12,0.0,WeatherDisplay:10.37,2013-02-01 21:11:00,
2013-02-01 22:16:00,39.0,36.9,28.17,SSE,150,2.3,2.3,92,0.00,CLR,FEW,0.12,0.0,WeatherDisplay:10.37,2013-02-01 21:16:00,
2013-02-01 22:21:00,38.8,36.7,28.17,NW,310,2.3,2.3,92,0.00,CLR,FEW,0.12,0.0,WeatherDisplay:10.37,2013-02-01 21:21:00,
2013-02-01 22:26:00,38.8,36.7,28.17,WSW,255,0.0,0.4,92,0.01,RA,FEW,0.13,0.0,WeatherDisplay:10.37,2013-02-01 21:26:00,
2013-02-01 22:31:00,38.8,36.7,28.17,WSW,255,0.0,0.4,92,0.01,RA,FEW,0.13,0.0,WeatherDisplay:10.37,2013-02-01 21:31:00,
2013-02-01 22:36:00,39.0,36.6,28.17,WNW,290,4.6,4.6,91,0.01,CLR,FEW,0.13,0.0,WeatherDisplay:10.37,2013-02-01 21:36:00,
2013-02-01 22:41:00,39.0,36.6,28.17,WNW,290,4.6,4.6,91,0.01,CLR,FEW,0.13,0.0,WeatherDisplay:10.37,2013-02-01 21:41:00,
2013-02-01 22:47:00,38.8,36.4,28.17,ENE,75,2.3,2.8,91,0.01,CLR,FEW,0.13,0.0,WeatherDisplay:10.37,2013-02-01 21:47:00,
2013-02-01 22:52:00,38.5,36.4,28.14,WNW,285,0.0,0.0,92,0.01,CLR,FEW,0.13,0.0,WeatherDisplay:10.37,2013-02-01 21:52:00,
2013-02-01 22:57:00,38.5,36.4,28.14,NNW,340,0.0,0.0,92,0.01,CLR,FEW,0.13,0.0,WeatherDisplay:10.37,2013-02-01 21:57:00,
2013-02-01 23:02:00,38.5,36.4,28.14,NW,320,0.0,0.0,92,0.01,CLR,FEW,0.13,0.0,WeatherDisplay:10.37,2013-02-01 22:02:00,
2013-02-01 23:07:00,38.5,36.4,28.14,NW,320,0.0,0.0,92,0.01,CLR,FEW,0.13,0.0,WeatherDisplay:10.37,2013-02-01 22:07:00,
2013-02-01 23:12:00,38.5,36.4,28.14,WNW,300,0.0,0.0,92,0.01,CLR,FEW,0.13,0.0,WeatherDisplay:10.37,2013-02-01 22:12:00,
2013-02-01 23:17:00,38.7,36.5,28.14,NNW,330,0.0,0.0,92,0.01,CLR,FEW,0.13,0.0,WeatherDisplay:10.37,2013-02-01 22:17:00,
2013-02-01 23:22:00,38.7,36.5,28.11,NNE,25,2.3,2.8,92,0.01,CLR,FEW,0.13,0.0,WeatherDisplay:10.37,2013-02-01 22:22:00,
2013-02-01 23:27:00,38.7,36.5,28.11,NNE,30,0.0,0.0,92,0.00,CLR,FEW,0.13,0.0,WeatherDisplay:10.37,2013-02-01 22:27:00,
2013-02-01 23:32:00,38.7,36.5,28.11,NNE,30,0.0,0.0,92,0.00,CLR,FEW,0.13,0.0,WeatherDisplay:10.37,2013-02-01 22:32:00,
2013-02-01 23:37:00,38.5,36.4,28.14,North,350,0.0,0.0,92,0.00,CLR,FEW,0.13,0.0,WeatherDisplay:10.37,2013-02-01 22:37:00,
2013-02-01 23:42:00,38.8,36.7,28.14,SE,140,2.3,2.8,92,0.00,CLR,FEW,0.13,0.0,WeatherDisplay:10.37,2013-02-01 22:42:00,
2013-02-01 23:47:00,38.7,36.5,28.14,SE,140,0.0,0.0,92,0.00,CLR,FEW,0.13,0.0,WeatherDisplay:10.37,2013-02-01 22:47:00,
2013-02-01 23:52:00,38.7,36.8,28.14,WNW,290,0.0,0.0,93,0.00,CLR,FEW,0.13,0.0,WeatherDisplay:10.37,2013-02-01 22:52:00,
2013-02-01 23:57:00,38.8,37.0,28.14,SSE,165,0.0,0.0,93,0.00,CLR,FEW,0.13,0.0,WeatherDisplay:10.37,2013-02-01 22:57:00,